Location: Unspecified
(0.0000°N, 0.0000°E)
Time: 21:23:21
(UTC+00:00)

Tiros 1 - Pass Details

Date: 20 October 2021
Orbit: 630 x 664 km, 48.4° (Epoch: 04 December)

Event Time Altitude Azimuth Distance (km) Brightness Sun altitude
Rises 19:18:57 0° 343° (NNW) 2,899 10.6 -23.1°
Enters shadow 19:21:12 - 355° (N) 2,135 9.7 -23.7°
Reaches altitude 10° 19:21:40 10° 358° (N) 1,993 - -23.8°
Maximum altitude 19:25:17 23° 51° (NE) 1,338 - -24.7°
Drops below altitude 10° 19:28:55 10° 103° (ESE) 2,000 - -25.6°
Sets 19:31:37 0° 118° (ESE) 2,912 - -26.2°
